Dewpoint
44 44 45 45 45 46 46 47 47 46 46 42 40 42 35 33 27 34 42 39 27 28 24 30 28 23 26 25 22 22 20 23 16 16 17 18 19 22 22 20 19 20 15 16 14 12 15 14 13 16 11 15 21 21 21 23 20 26 25 22 22 46 16 15 18 19 21 17 16 22 22 15 14 16 24 19 14 17 19 17 19 17 16 17 13 11 17
44 44 44 44 45 45 46 46 47 47 46 44 42 38 35 35 36 37 41 37 32 25 15 21 22 28 31 28 24 23 22 18 16 17 17 21 23 21 22 19 16 18 16 18 14 16 10 17 16 16 18 15 22 25 24 25 26 24 22 21 28 12 21 19 10 7 11 13 15 15 19 20 17 14 16 21 19 21 21 21 21 13 19 19 16 12 12
44 44 44 44 44 45 45 46 46 46 46 46 40 35 36 37 37 39 39 35 32 23 26 23 20 25 26 26 25 25 22 18 20 19 17 18 22 22 20 18 20 20 21 18 17 19 13 16 22 19 23 21 23 25 25 25 30 31 37 36 30 15 21 16 9 5 3 -0 -1 4 7 14 19 18 18 17 16 16 17 8 14 10 16 20 14 10 19
43 44 44 44 44 44 45 45 45 46 46 46 40 39 31 31 18 29 29 29 29 29 33 29 24 22 26 22 26 26 23 23 22 21 20 20 23 19 22 20 23 22 21 20 21 21 22 18 20 21 21 25 25 26 26 28 31 41 37 39 31 17 23 19 17 15 13 13 11 16 24 17 11 17 16 17 20 21 19 17 8 9 12 13 17 19 17
43 43 43 43 43 44 45 45 45 45 46 46 39 38 36 35 25 23 25 26 27 25 28 30 29 25 28 22 26 24 26 25 23 22 21 22 23 26 22 23 20 20 22 20 21 25 24 26 25 27 27 28 27 27 25 24 34 35 30 35 24 22 14 20 21 19 16 15 14 16 22 15 17 16 17 17 19 19 16 10 12 17 13 11 19 22 16
43 43 43 43 43 43 44 44 44 44 45 46 40 32 33 23 24 30 28 22 24 26 26 29 31 30 28 25 28 25 26 27 23 25 22 23 24 22 24 23 24 24 22 22 18 22 22 25 20 28 29 27 25 22 24 22 30 27 21 30 21 18 13 19 20 19 21 22 20 20 20 17 19 17 18 17 18 19 14 12 17 18 12 12 17 20 16
42 43 43 43 42 42 43 44 44 44 44 45 36 31 32 30 30 32 35 25 27 25 27 33 33 28 30 29 29 26 26 24 28 22 22 25 24 22 17 22 22 22 25 22 20 23 15 14 24 24 21 24 25 22 23 24 22 20 22 22 26 19 15 20 21 19 19 17 18 21 19 19 17 18 17 17 19 19 19 18 20 19 18 18 18 18 18
42 42 42 42 42 42 42 43 44 43 43 41 35 35 29 29 30 30 33 31 29 31 31 30 29 25 31 23 27 26 23 22 21 21 19 15 22 27 24 22 22 25 24 25 20 22 22 21 17 23 22 22 24 21 22 20 22 20 21 23 23 20 17 24 20 15 15 18 21 19 18 19 17 18 18 20 20 20 20 19 18 22 19 19 18 17 17
41 41 42 42 42 42 42 43 43 42 42 37 37 35 36 35 35 34 31 26 27 32 29 29 27 23 26 26 30 28 24 23 22 22 22 22 22 26 23 23 24 25 25 24 21 23 27 27 22 22 23 17 25 17 21 20 20 20 21 23 23 21 17 23 20 14 15 17 18 17 19 18 16 16 17 16 18 14 17 15 20 15 15 16 13 12 15
41 41 41 41 41 41 41 42 43 42 41 36 34 34 37 36 36 36 30 26 34 27 29 28 25 23 25 30 29 28 26 23 22 18 22 24 25 28 28 29 25 23 23 22 25 27 30 31 28 23 24 23 25 22 22 20 20 20 20 23 18 20 16 14 13 13 10 15 18 16 14 14 14 13 15 17 17 17 20 19 23 20 16 10 8 14 19
41 40 40 41 41 41 41 41 42 43 39 36 34 33 35 35 33 34 28 24 24 27 26 25 26 29 29 28 27 29 28 25 24 20 19 26 26 29 29 28 22 20 21 23 26 28 26 25 24 25 22 22 22 21 20 21 20 19 21 20 20 22 20 15 17 10 7 11 16 18 12 9 11 16 20 19 17 18 16 16 18 21 18 18 19 18 21
40 40 40 40 40 41 41 41 42 42 41 38 36 34 35 36 35 31 25 24 26 26 25 22 26 28 28 27 29 28 27 27 26 28 23 25 27 28 26 26 24 19 24 28 27 25 24 21 19 18 18 18 17 17 18 18 18 24 21 19 20 19 20 16 17 11 12 11 11 10 11 12 18 20 23 23 22 21 17 20 22 22 22 22 22 25 27
40 40 40 40 40 40 40 40 40 41 41 38 37 34 36 37 34 30 27 25 25 26 24 26 29 30 29 29 27 27 28 29 29 31 29 24 25 25 24 22 20 20 20 21 23 20 18 18 20 20 18 21 19 19 18 21 19 19 20 19 19 15 17 14 13 11 9 8 7 5 10 15 21 21 25 26 24 22 21 19 21 24 25 25 24 26 28
39 40 40 40 39 40 40 40 40 41 42 40 36 35 36 37 34 29 27 23 26 26 28 27 26 26 27 27 27 26 27 25 25 27 24 28 24 22 23 22 23 23 24 28 26 20 21 20 15 15 15 15 17 15 18 16 16 17 18 20 19 20 20 16 14 15 9 6 9 12 16 16 17 16 17 23 18 16 14 11 16 24 26 26 25 27 28
39 39 40 41 40 39 39 39 40 41 41 41 36 35 36 36 36 32 31 25 26 28 26 23 25 27 27 27 27 25 24 24 23 22 24 27 23 24 24 22 22 23 25 22 18 22 15 17 10 9 13 9 4 7 16 14 16 19 20 18 19 20 17 18 14 12 16 11 7 6 7 8 9 18 26 31 31 29 26 18 17 24 26 28 28 27 27
39 39 40 40 40 39 39 39 41 42 42 41 36 35 35 37 35 34 30 25 23 21 25 28 29 28 26 26 26 25 22 20 22 23 22 23 23 22 23 21 20 25 23 23 23 20 18 11 8 6 6 9 13 13 11 16 15 16 18 16 18 22 20 19 18 13 11 11 9 5 4 5 13 23 28 31 30 29 26 18 15 22 24 27 27 26 26
39 40 39 39 39 39 38 38 39 41 42 41 36 34 33 36 35 34 31 28 26 25 29 30 30 29 23 22 26 25 25 22 23 19 19 19 22 21 19 18 23 25 23 21 22 19 15 14 18 13 16 17 13 10 14 16 15 15 15 18 19 19 17 17 14 12 11 8 8 9 7 7 24 27 29 31 31 28 24 14 12 22 23 23 25 24 25
40 40 41 40 39 38 38 38 38 39 42 42 38 33 33 36 36 35 35 29 26 25 27 32 30 26 23 23 22 26 27 26 25 24 20 23 23 20 18 20 20 22 26 20 21 17 16 13 10 11 10 16 17 16 9 12 13 12 14 15 14 14 16 17 13 12 15 16 10 10 12 23 29 28 29 31 32 26 17 14 18 27 29 29 25 25 27
40 40 41 40 39 38 38 38 38 39 41 42 39 34 33 35 36 35 34 33 30 27 30 32 33 30 29 29 27 28 28 26 24 19 21 18 19 21 21 19 23 18 22 17 21 17 14 14 19 18 12 13 18 10 16 12 11 17 15 14 14 11 11 15 13 14 14 11 12 15 12 23 28 30 32 34 23 16 15 26 31 29 24 25 25 25 29
40 40 40 39 38 38 37 38 38 39 39 40 39 33 35 36 37 37 34 31 32 29 30 31 31 30 31 29 27 24 26 26 24 20 19 15 22 22 21 19 24 21 21 22 14 19 14 13 17 19 15 18 20 18 11 9 18 16 16 16 11 13 9 7 10 11 11 8 11 10 11 25 32 32 24 28 18 22 23 23 25 28 25 25 25 28 28
40 39 39 38 38 38 37 37 38 38 39 40 41 34 34 34 37 37 36 34 31 28 27 31 32 31 31 31 30 29 27 25 25 24 23 21 23 19 10 12 17 18 16 17 13 14 17 15 19 17 22 19 21 19 12 12 15 19 16 15 15 18 10 10 10 17 9 8 8 9 19 21 32 27 15 22 25 23 24 26 25 26 27 27 28 30 31
40 39 38 39 38 38 38 37 37 37 38 38 40 34 31 34 35 37 38 35 29 28 29 31 33 33 34 33 33 32 30 29 30 28 26 23 24 21 20 21 21 20 20 23 19 16 19 19 18 16 16 17 20 14 17 11 8 13 17 16 11 24 17 18 12 19 11 9 9 17 24 25 26 31 28 26 26 29 30 29 27 27 29 30 29 31 31
40 40 39 38 38 39 38 38 38 38 38 37 38 35 32 34 34 38 34 29 28 31 34 32 32 31 33 34 35 33 32 31 31 31 29 25 25 24 22 21 21 25 25 25 19 20 20 19 13 20 18 19 14 12 14 15 9 15 10 16 15 20 20 22 21 21 21 22 20 21 20 21 21 26 28 24 24 27 32 30 27 28 30 30 29 30 31
39 39 39 39 38 38 39 38 39 39 39 38 37 35 34 33 34 35 33 32 29 27 26 28 26 23 26 27 28 29 28 29 30 30 31 29 22 20 22 24 23 23 22 26 24 22 19 16 19 21 15 19 15 13 11 10 9 17 14 13 17 19 20 17 13 19 14 12 16 17 18 18 20 19 20 23 26 27 28 26 26 27 28 29 31 32 32
40 39 38 38 38 38 38 38 38 38 38 38 37 38 37 33 33 35 33 28 30 28 21 26 26 28 29 30 30 29 28 28 32 32 29 31 27 24 21 23 26 21 20 26 26 25 21 16 18 17 15 21 18 14 17 13 15 17 12 15 18 17 22 19 19 18 14 14 16 18 19 20 20 20 20 21 23 24 25 26 26 27 29 30 30 31 32
39 39 38 38 38 38 38 38 38 38 38 37 38 35 33 33 33 34 34 35 33 30 25 22 24 30 29 30 29 29 29 30 29 27 29 27 28 27 26 25 23 30 27 28 26 21 21 21 18 17 16 18 21 15 15 17 18 21 20 19 20 20 23 18 19 19 20 20 20 20 20 19 19 20 23 23 23 23 23 24 26 27 28 29 30 32 32
39 38 38 38 39 39 38 38 38 37 37 38 38 36 35 35 34 33 30 32 24 21 23 20 23 27 30 30 30 31 29 26 26 26 26 25 27 28 27 25 24 26 26 25 25 20 23 20 18 19 20 19 21 20 21 20 21 17 16 21 24 22 20 21 20 18 17 17 18 18 16 17 18 18 19 19 20 22 23 25 26 27 27 28 28 28 29
40 39 39 38 38 38 38 38 40 40 40 40 40 37 35 33 34 35 34 33 26 20 23 24 27 29 30 29 32 28 25 28 26 26 25 25 27 27 26 26 25 24 24 23 20 22 22 19 22 19 17 22 21 20 23 23 22 21 22 23 24 21 21 20 16 14 17 19 19 20 20 19 19 19 20 21 23 24 25 25 25 25 26 26 27 27 28
40 40 38 38 38 38 39 40 41 42 41 42 36 34 33 34 37 38 37 36 33 29 29 30 31 26 17 20 26 26 25 27 26 26 26 26 29 28 26 26 24 25 26 23 24 23 19 20 20 21 20 25 24 20 20 16 14 16 19 21 23 24 24 22 21 21 21 21 22 22 21 19 19 19 20 21 23 25 25 26 26 26 27 27 28 28 29
40 39 38 38 40 41 41 41 41 42 42 37 32 28 26 33 37 40 38 38 35 34 30 27 21 18 25 28 27 26 25 24 25 27 27 26 26 27 28 26 26 30 27 26 27 18 23 22 21 24 26 26 21 18 18 18 15 19 21 21 22 23 23 25 24 22 21 22 22 22 21 20 21 21 22 24 26 29 27 27 28 28 28 29 30 31 32
39 39 39 39 40 41 42 42 42 42 42 33 29 25 28 28 33 40 41 38 35 32 29 27 24 24 23 27 28 26 24 25 25 25 26 28 27 26 27 28 28 30 23 24 23 25 22 17 21 21 27 27 22 15 21 19 16 20 21 22 24 24 24 24 25 25 24 24 24 23 23 23 24 25 26 27 27 28 28 29 31 34 34 35 34 33 33
39 39 40 40 41 41 42 43 43 43 39 37 29 26 28 30 34 36 41 40 35 31 26 19 18 17 19 22 25 29 25 26 29 28 22 27 22 26 26 26 21 26 30 24 23 23 23 21 19 22 23 29 24 10 20 18 15 19 21 21 23 24 24 25 25 25 25 25 25 24 23 24 25 25 24 25 25 27 28 29 30 31 33 34 34 34 33
39 39 40 40 41 41 42 43 44 43 39 40 41 41 42 42 42 42 42 35 32 26 25 23 18 21 20 21 24 27 28 25 24 22 18 25 21 21 15 27 25 26 37 25 21 19 21 20 20 17 23 26 20 17 15 14 19 21 23 25 25 25 25 26 26 27 27 27 26 25 25 25 24 25 25 26 27 29 31 32 33 34 33 33 33 33 34
39 39 40 40 40 40 41 44 45 44 43 39 32 31 36 42 42 43 37 33 28 26 23 22 17 17 18 23 20 23 26 20 20 20 15 24 26 18 15 21 22 18 21 21 23 22 20 24 19 17 21 21 21 15 16 20 21 23 24 25 26 26 27 28 29 29 30 31 30 29 28 28 28 29 30 31 31 32 32 32 32 32 33 33 33 33 33
39 39 40 40 40 40 44 44 38 36 32 31 30 34 35 43 44 42 38 29 18 21 22 23 25 21 20 18 14 19 25 21 19 21 13 20 23 15 18 11 17 11 19 26 18 16 16 21 22 17 16 19 18 16 14 19 23 24 25 25 26 27 29 30 30 31 31 32 32 32 32 32 32 32 32 31 30 31 31 32 32 32 32 32 33 33 32
39 39 39 39 39 44 39 39 35 31 29 29 29 35 42 44 42 37 35 31 26 20 18 18 22 19 18 13 12 19 25 21 23 19 19 16 15 22 15 12 8 14 21 17 12 17 15 23 16 12 10 12 12 12 16 22 24 25 26 26 27 29 31 32 32 32 32 33 33 34 34 33 32 31 30 29 29 30 31 32 32 32 32 32 33 33 33
39 39 39 39 37 34 29 31 35 34 31 34 38 42 41 41 38 38 35 34 34 32 24 18 17 20 20 14 15 23 21 14 20 12 18 12 10 15 15 10 9 21 10 11 9 8 13 27 12 9 8 9 9 18 22 26 27 27 27 28 30 33 33 33 33 33 33 34 34 34 32 31 30 30 30 30 30 31 32 31 33 34 33 34 35 34 33
38 38 32 30 27 24 25 26 28 35 40 39 39 35 31 33 28 31 32 30 31 32 28 27 20 20 23 20 18 23 20 18 15 9 12 16 11 10 14 10 13 16 5 5 9 18 13 12 12 8 7 16 20 23 26 27 28 28 29 31 33 33 33 33 33 33 32 31 31 31 31 31 31 31 31 30 30 30 30 33 35 36 34 31 33 34 35
36 32 28 26 25 22 25 27 36 39 38 37 33 28 25 27 23 25 28 30 31 29 31 28 24 25 21 21 22 27 21 15 13 12 7 17 13 9 13 4 13 10 4 4 12 20 7 8 6 10 10 16 23 24 26 27 27 29 31 32 33 33 33 33 34 33 31 31 31 32 32 31 31 31 31 31 31 32 34 35 37 37 35 36 37 37 37
32 30 27 26 24 24 33 35 39 37 34 26 25 22 21 23 20 18 24 23 23 26 28 25 29 28 27 24 20 18 26 14 8 9 7 12 19 7 11 9 8 9 2 2 8 20 10 7 7 11 14 16 21 23 26 27 28 29 31 33 34 34 34 33 33 34 34 34 33 32 32 33 34 33 33 34 34 34 36 37 36 35 35 35 35 36 35
31 31 29 26 29 29 32 36 34 29 25 19 18 19 17 15 21 20 17 16 14 16 24 24 23 21 24 25 23 20 23 20 17 16 13 10 18 16 7 5 11 6 4 4 11 15 11 9 10 12 14 14 22 24 26 27 29 31 33 34 34 34 34 34 34 33 33 33 33 33 33 33 33 34 35 35 35 36 36 35 35 35 34 34 34 35 35
32 33 34 35 35 36 36 31 26 24 22 21 14 12 15 16 16 13 15 9 8 12 20 22 12 12 13 22 22 21 17 20 14 15 9 7 21 8 5 9 14 4 2 7 11 12 10 9 6 8 11 16 21 25 27 28 30 32 33 34 33 34 33 34 32 33 33 33 33 33 33 33 34 34 35 36 35 34 34 33 34 35 34 35 34 35 34
39 38 36 34 32 29 28 21 22 18 13 13 8 6 9 8 10 7 10 14 17 14 18 20 16 23 23 22 19 18 15 22 14 13 10 7 18 12 7 6 4 1 5 14 11 8 8 7 7 11 16 21 23 25 28 29 32 33 33 33 34 33 33 34 32 32 33 33 33 33 33 34 34 34 35 35 35 34 34 34 34 34 34 34 34 34 34
36 35 29 27 25 24 19 9 18 15 13 10 5 2 7 6 12 15 12 14 19 14 20 13 15 14 11 19 15 15 16 18 24 14 13 13 10 6 6 4 4 8 12 5 9 9 5 7 10 16 20 22 25 27 29 30 31 33 32 33 34 34 34 33 33 33 33 33 33 33 33 33 33 33 34 34 34 34 34 34 35 35 34 34 34 34 34
28 24 21 16 15 17 9 3 12 7 3 5 14 9 12 7 10 13 15 20 18 16 23 21 21 19 15 20 16 16 17 11 20 8 5 11 6 7 5 3 7 7 5 1 4 4 8 9 11 16 21 23 26 28 30 31 32 32 31 33 34 34 34 33 33 33 33 33 33 33 32 32 32 32 33 33 35 35 35 34 35 34 34 33 32 31 31
26 23 20 12 11 12 8 2 8 4 12 16 12 15 14 16 16 17 19 20 17 19 20 20 23 22 15 18 10 10 14 13 9 9 13 8 4 2 7 11 8 5 6 0 2 3 4 13 16 20 22 24 27 29 30 32 32 33 33 32 33 33 34 33 33 33 33 33 33 33 32 33 33 33 33 33 34 34 34 34 34 33 33 31 30 30 30
28 26 21 15 12 13 13 8 7 9 14 17 17 17 17 18 19 19 19 19 19 22 22 22 20 18 10 11 11 14 13 13 8 11 9 4 3 7 16 5 2 6 6 0 -1 -2 5 16 19 21 23 25 28 30 31 32 32 33 34 34 33 34 34 33 34 34 33 34 33 33 32 32 33 33 33 33 33 33 34 34 34 34 33 31 31 31 31
26 27 19 11 9 13 9 11 17 19 20 19 19 20 20 20 20 19 20 19 21 22 20 20 12 15 15 18 12 10 10 14 8 10 11 6 10 2 1 2 3 3 5 4 4 4 12 18 21 23 25 28 29 30 31 32 32 32 31 31 32 33 34 34 34 34 34 33 33 33 33 33 33 33 33 33 33 33 34 34 34 33 33 33 32 31 31
27 25 19 14 14 15 12 16 20 18 18 20 19 20 20 20 20 20 22 21 21 20 23 17 13 11 10 15 12 10 7 9 3 2 8 3 -0 -2 1 -0 0 -1 -1 6 12 13 15 20 22 23 26 28 30 31 32 32 32 31 29 30 30 31 33 34 34 35 34 34 33 33 33 33 34 33 33 33 32 33 34 33 32 32 31 31 30 30 29
24 21 24 22 18 16 19 18 17 16 17 19 19 20 19 19 20 20 21 20 22 21 25 25 20 12 11 12 6 6 5 7 5 12 1 0 -1 1 3 2 -2 1 3 9 12 17 20 22 22 25 29 30 30 31 31 32 32 31 30 30 31 31 31 32 33 34 34 34 34 34 34 34 33 33 33 33 33 33 33 32 31 29 28 28 27 27 26
26 23 18 20 19 15 15 11 10 14 17 19 19 20 19 20 19 20 21 19 20 19 16 10 10 10 8 5 3 2 2 7 7 4 2 1 5 5 4 1 1 5 12 17 19 20 21 22 23 27 29 30 31 31 32 32 32 31 31 32 31 30 30 32 32 32 32 32 33 32 34 33 34 34 34 33 32 31 30 29 29 27 26 26 26 26 26
21 17 15 17 22 22 21 21 19 20 21 21 21 21 21 20 21 21 21 20 17 12 13 13 12 8 5 4 4 5 9 7 7 5 2 3 11 5 1 3 12 16 17 18 20 21 19 20 23 27 29 30 31 31 32 32 31 31 31 31 30 29 29 29 30 30 31 31 32 32 32 33 33 33 33 32 30 28 27 26 27 26 25 24 25 25 25